Volver al catálogo

STARLINK-35203

ActivoComunicacionesVLEO
NORAD 65498·PAYLOAD·🇺🇸 United States

Lanzado Sep 5, 2025 desde Cape Canaveral Space Force Station

Loading…

Próximos Pases (próximas 24 horas)

TLE

ActualizadoSource: CelesTrak SupGP

Época: Sep 14, 2026, 20:45 UTC

1 65498C 25198G   26257.86506944 -.00054155  00000+0 -16003-2 0  2571
2 65498  53.1566 109.8502 0001300  92.5828  72.7252 15.34412411    15

Sigue STARLINK-35203 en tiempo real con AllMySat

Download on the App Store